User: anonymous   Login
Location: Noordwijk
(52.2400°N, 4.4500°E)
Time: 09:42:10
(UTC+00:00)
Language:

KAITUO 1B - Orbit

View from above orbital plane
View from above orbital plane
View from above satellite
View from above satellite

Ground track
Ground track

The orbit data is extracted from the following two-line orbital elements,

1 40912U 15049P   22333.77680184  .00012710  00000-0  43720-3 0  9999
2 40912  97.4322 344.7663 0013933  77.3968   7.4453 15.30117775398995
Epoch (UTC): 29 November 2022 18:38:35
Eccentricity: 0.0013933
inclination: 97.4322°
perigee height: 466 km
apogee height: 485 km
right ascension of ascending node: 344.7663°
argument of perigee: 77.3968°
revolutions per day: 15.30117775
mean anomaly at epoch: 7.4453°
orbit number at epoch: 39899

The dashed part of the orbit path shows where the satellite is in the earth's shadow,  

DLR